Time,TemperatureF,DewpointF,PressureIn,WindDirection,WindDirectionDegrees,WindSpeedMPH,WindSpeedGustMPH,Humidity,HourlyPrecipIn,Conditions,Clouds,dailyrainin,SoftwareType,DateUTC
2013-08-28 00:00:00,67.8,66.0,29.91,ENE,69,0.0,0.0,94,0.00,,,0.00,Wunderground v.1.15,2013-08-28 04:00:00,
2013-08-28 00:10:00,67.9,66.1,29.91,ENE,69,0.0,0.0,94,0.00,,,0.00,Wunderground v.1.15,2013-08-28 04:10:00,
2013-08-28 00:20:00,68.0,66.5,29.91,ENE,69,0.0,0.0,95,0.00,,,0.00,Wunderground v.1.15,2013-08-28 04:20:00,
2013-08-28 00:30:00,67.7,65.9,29.90,ENE,69,0.0,0.0,94,0.00,,,0.00,Wunderground v.1.15,2013-08-28 04:30:00,
2013-08-28 00:40:00,67.4,65.6,29.90,ENE,69,0.0,0.0,94,0.00,,,0.00,Wunderground v.1.15,2013-08-28 04:40:00,
2013-08-28 00:50:00,67.4,65.9,29.90,ENE,69,0.0,0.0,95,0.00,,,0.00,Wunderground v.1.15,2013-08-28 04:50:00,
2013-08-28 01:00:00,67.1,65.6,29.90,ENE,69,0.0,0.0,95,0.00,,,0.00,Wunderground v.1.15,2013-08-28 05:00:00,
2013-08-28 01:10:00,67.0,65.5,29.90,ENE,69,1.0,1.0,95,0.00,,,0.00,Wunderground v.1.15,2013-08-28 05:10:00,
2013-08-28 01:20:00,67.3,66.1,29.89,ENE,69,0.0,0.0,96,0.00,,,0.00,Wunderground v.1.15,2013-08-28 05:20:00,
2013-08-28 01:30:00,67.1,65.9,29.89,ENE,69,0.0,0.0,96,0.00,,,0.00,Wunderground v.1.15,2013-08-28 05:30:00,
2013-08-28 01:40:00,67.0,65.8,29.89,ENE,69,0.0,0.0,96,0.00,,,0.00,Wunderground v.1.15,2013-08-28 05:40:00,
2013-08-28 01:50:00,66.5,65.3,29.89,ENE,69,0.0,0.0,96,0.00,,,0.00,Wunderground v.1.15,2013-08-28 05:50:00,
2013-08-28 02:00:00,66.1,64.9,29.88,ENE,69,0.0,0.0,96,0.00,,,0.00,Wunderground v.1.15,2013-08-28 06:00:00,
2013-08-28 02:10:00,66.1,64.9,29.88,ENE,69,0.0,0.0,96,0.00,,,0.00,Wunderground v.1.15,2013-08-28 06:10:00,
2013-08-28 02:20:00,66.3,65.4,29.88,ENE,69,0.0,0.0,97,0.00,,,0.00,Wunderground v.1.15,2013-08-28 06:20:00,
2013-08-28 02:30:00,66.3,65.4,29.88,ENE,69,0.0,0.0,97,0.00,,,0.00,Wunderground v.1.15,2013-08-28 06:30:00,
2013-08-28 02:40:00,65.8,64.6,29.88,ENE,69,0.0,0.0,96,0.00,,,0.00,Wunderground v.1.15,2013-08-28 06:40:00,
2013-08-28 02:50:00,65.8,64.9,29.88,ENE,69,0.0,0.0,97,0.00,,,0.00,Wunderground v.1.15,2013-08-28 06:50:00,
2013-08-28 03:00:00,65.5,64.6,29.89,ENE,69,0.0,0.0,97,0.00,,,0.00,Wunderground v.1.15,2013-08-28 07:00:00,
2013-08-28 03:10:00,65.2,64.3,29.89,ENE,69,0.0,0.0,97,0.00,,,0.00,Wunderground v.1.15,2013-08-28 07:10:00,
2013-08-28 03:20:00,64.9,64.0,29.88,ENE,69,0.0,0.0,97,0.00,,,0.00,Wunderground v.1.15,2013-08-28 07:20:00,
2013-08-28 03:30:00,64.7,63.8,29.88,ENE,69,0.0,0.0,97,0.00,,,0.00,Wunderground v.1.15,2013-08-28 07:30:00,
2013-08-28 03:40:00,64.7,63.8,29.87,ENE,69,0.0,1.0,97,0.00,,,0.00,Wunderground v.1.15,2013-08-28 07:40:00,
2013-08-28 03:50:00,64.8,64.2,29.87,ENE,69,0.0,0.0,98,0.00,,,0.00,Wunderground v.1.15,2013-08-28 07:50:00,
2013-08-28 04:00:00,65.2,64.3,29.88,ENE,69,0.0,0.0,97,0.00,,,0.00,Wunderground v.1.15,2013-08-28 08:00:00,
2013-08-28 04:10:00,64.7,63.8,29.88,ENE,69,0.0,0.0,97,0.00,,,0.00,Wunderground v.1.15,2013-08-28 08:10:00,
2013-08-28 04:20:00,64.2,63.3,29.88,ENE,69,0.0,0.0,97,0.00,,,0.00,Wunderground v.1.15,2013-08-28 08:20:00,
2013-08-28 04:30:00,64.0,63.1,29.88,ENE,69,0.0,0.0,97,0.00,,,0.00,Wunderground v.1.15,2013-08-28 08:30:00,
2013-08-28 04:40:00,63.8,62.9,29.88,ENE,69,0.0,0.0,97,0.00,,,0.00,Wunderground v.1.15,2013-08-28 08:40:00,
2013-08-28 04:50:00,63.8,63.2,29.88,ENE,69,0.0,0.0,98,0.00,,,0.00,Wunderground v.1.15,2013-08-28 08:50:00,
2013-08-28 05:00:00,63.7,63.1,29.88,ENE,69,0.0,0.0,98,0.00,,,0.00,Wunderground v.1.15,2013-08-28 09:00:00,
2013-08-28 05:10:00,63.4,62.8,29.89,ENE,69,0.0,0.0,98,0.00,,,0.00,Wunderground v.1.15,2013-08-28 09:10:00,
2013-08-28 05:20:00,63.2,62.3,29.89,ENE,69,0.0,0.0,97,0.00,,,0.00,Wunderground v.1.15,2013-08-28 09:20:00,
2013-08-28 05:30:00,62.9,62.3,29.89,ENE,69,0.0,0.0,98,0.00,,,0.00,Wunderground v.1.15,2013-08-28 09:30:00,
2013-08-28 05:40:00,62.8,62.2,29.89,ENE,69,0.0,0.0,98,0.00,,,0.00,Wunderground v.1.15,2013-08-28 09:40:00,
2013-08-28 05:50:00,63.0,62.4,29.90,ENE,69,0.0,0.0,98,0.00,,,0.00,Wunderground v.1.15,2013-08-28 09:50:00,
2013-08-28 06:00:00,63.1,62.5,29.90,ENE,69,0.0,0.0,98,0.00,,,0.00,Wunderground v.1.15,2013-08-28 10:00:00,
2013-08-28 06:30:00,63.6,63.0,29.90,ENE,69,0.0,0.0,98,0.00,,,0.00,Wunderground v.1.15,2013-08-28 10:30:00,
2013-08-28 06:40:00,63.6,63.0,29.90,ENE,69,0.0,0.0,98,0.00,,,0.00,Wunderground v.1.15,2013-08-28 10:40:00,
2013-08-28 06:50:00,63.6,63.0,29.90,ENE,69,0.0,0.0,98,0.00,,,0.00,Wunderground v.1.15,2013-08-28 10:50:00,
2013-08-28 07:00:00,63.8,63.2,29.90,ENE,69,0.0,0.0,98,0.00,,,0.00,Wunderground v.1.15,2013-08-28 11:00:00,
2013-08-28 07:10:00,64.0,63.4,29.90,ENE,69,0.0,0.0,98,0.00,,,0.00,Wunderground v.1.15,2013-08-28 11:10:00,
2013-08-28 07:20:00,64.1,63.5,29.90,ENE,69,0.0,0.0,98,0.00,,,0.00,Wunderground v.1.15,2013-08-28 11:20:00,
2013-08-28 07:30:00,64.3,63.7,29.91,ENE,69,0.0,0.0,98,0.00,,,0.00,Wunderground v.1.15,2013-08-28 11:30:00,
2013-08-28 07:40:00,64.4,63.8,29.90,ENE,69,0.0,0.0,98,0.00,,,0.00,Wunderground v.1.15,2013-08-28 11:40:00,
2013-08-28 07:50:00,64.6,64.0,29.90,ENE,69,0.0,0.0,98,0.00,,,0.00,Wunderground v.1.15,2013-08-28 11:50:00,
2013-08-28 08:00:00,64.9,64.6,29.91,ENE,69,0.0,0.0,99,0.00,,,0.00,Wunderground v.1.15,2013-08-28 12:00:00,
2013-08-28 08:10:00,65.3,64.7,29.91,ENE,69,0.0,0.0,98,0.00,,,0.00,Wunderground v.1.15,2013-08-28 12:10:00,
2013-08-28 08:20:00,65.1,64.5,29.91,ENE,69,0.0,0.0,98,0.00,,,0.00,Wunderground v.1.15,2013-08-28 12:20:00,
2013-08-28 08:30:00,65.4,65.1,29.91,ENE,69,0.0,0.0,99,0.00,,,0.00,Wunderground v.1.15,2013-08-28 12:30:00,
2013-08-28 08:40:00,65.8,65.2,29.91,ENE,69,0.0,0.0,98,0.00,,,0.00,Wunderground v.1.15,2013-08-28 12:40:00,
2013-08-28 08:50:00,66.5,66.2,29.91,NE,53,0.0,0.0,99,0.00,,,0.00,Wunderground v.1.15,2013-08-28 12:50:00,
2013-08-28 09:00:00,66.7,66.1,29.92,NE,53,0.0,1.0,98,0.00,,,0.00,Wunderground v.1.15,2013-08-28 13:00:00,
2013-08-28 09:10:00,66.2,65.6,29.92,NW,308,1.0,1.0,98,0.00,,,0.00,Wunderground v.1.15,2013-08-28 13:10:00,
2013-08-28 09:20:00,66.5,65.9,29.92,NW,308,1.0,3.0,98,0.00,,,0.00,Wunderground v.1.15,2013-08-28 13:20:00,
2013-08-28 09:30:00,66.2,65.6,29.91,WNW,302,1.0,1.0,98,0.00,,,0.00,Wunderground v.1.15,2013-08-28 13:30:00,
2013-08-28 09:40:00,66.6,66.0,29.91,WNW,302,1.0,1.0,98,0.00,,,0.00,Wunderground v.1.15,2013-08-28 13:40:00,
2013-08-28 09:50:00,67.2,66.6,29.91,WNW,296,1.0,1.0,98,0.00,,,0.00,Wunderground v.1.15,2013-08-28 13:50:00,
2013-08-28 10:00:00,68.4,67.8,29.91,WNW,291,1.0,3.0,98,0.00,,,0.00,Wunderground v.1.15,2013-08-28 14:00:00,
2013-08-28 10:10:00,69.0,68.4,29.91,NW,322,2.0,3.0,98,0.00,,,0.00,Wunderground v.1.15,2013-08-28 14:10:00,
2013-08-28 10:20:00,69.7,68.8,29.91,NW,306,2.0,2.0,97,0.00,,,0.00,Wunderground v.1.15,2013-08-28 14:20:00,
2013-08-28 10:30:00,70.1,68.9,29.92,West,274,2.0,3.0,96,0.00,,,0.00,Wunderground v.1.15,2013-08-28 14:30:00,
2013-08-28 10:40:00,71.1,69.6,29.92,WNW,300,2.0,2.0,95,0.00,,,0.00,Wunderground v.1.15,2013-08-28 14:40:00,
2013-08-28 10:50:00,72.8,71.0,29.92,WNW,292,1.0,1.0,94,0.00,,,0.00,Wunderground v.1.15,2013-08-28 14:50:00,
2013-08-28 11:00:00,74.0,71.2,29.92,NW,319,1.0,3.0,91,0.00,,,0.00,Wunderground v.1.15,2013-08-28 15:00:00,
2013-08-28 11:10:00,74.4,70.6,29.91,NW,317,1.0,1.0,88,0.00,,,0.00,Wunderground v.1.15,2013-08-28 15:10:00,
2013-08-28 11:20:00,75.4,71.3,29.91,WNW,294,1.0,1.0,87,0.00,,,0.00,Wunderground v.1.15,2013-08-28 15:20:00,
2013-08-28 11:30:00,76.5,72.3,29.91,NW,311,1.0,1.0,87,0.00,,,0.00,Wunderground v.1.15,2013-08-28 15:30:00,
2013-08-28 11:40:00,76.8,70.5,29.91,West,264,1.0,1.0,81,0.00,,,0.00,Wunderground v.1.15,2013-08-28 15:40:00,
2013-08-28 11:50:00,77.0,71.1,29.90,WNW,293,1.0,1.0,82,0.00,,,0.00,Wunderground v.1.15,2013-08-28 15:50:00,
2013-08-28 12:00:00,78.3,72.7,29.90,NNE,19,1.0,2.0,83,0.00,,,0.00,Wunderground v.1.15,2013-08-28 16:00:00,
2013-08-28 12:10:00,79.3,71.8,29.90,NW,311,1.0,1.0,78,0.00,,,0.00,Wunderground v.1.15,2013-08-28 16:10:00,
2013-08-28 12:20:00,79.9,72.4,29.89,SW,232,0.0,0.0,78,0.00,,,0.00,Wunderground v.1.15,2013-08-28 16:20:00,
2013-08-28 12:30:00,80.6,72.7,29.89,West,274,1.0,2.0,77,0.00,,,0.00,Wunderground v.1.15,2013-08-28 16:30:00,
2013-08-28 12:40:00,79.8,70.8,29.89,NNE,19,1.0,1.0,74,0.00,,,0.00,Wunderground v.1.15,2013-08-28 16:40:00,
2013-08-28 12:50:00,80.9,73.4,29.90,NNE,19,0.0,0.0,78,0.00,,,0.00,Wunderground v.1.15,2013-08-28 16:50:00,
2013-08-28 13:00:00,78.3,68.9,29.90,East,84,3.0,7.0,73,0.00,,,0.00,Wunderground v.1.15,2013-08-28 17:00:00,
2013-08-28 13:10:00,77.2,68.7,29.89,ENE,70,2.0,2.0,75,0.00,,,0.00,Wunderground v.1.15,2013-08-28 17:10:00,
2013-08-28 13:20:00,76.6,68.8,29.89,ENE,73,1.0,3.0,77,0.00,,,0.00,Wunderground v.1.15,2013-08-28 17:20:00,
2013-08-28 13:30:00,76.5,69.5,29.89,East,84,1.0,3.0,79,0.00,,,0.00,Wunderground v.1.15,2013-08-28 17:30:00,
2013-08-28 13:40:00,76.2,68.5,29.89,ENE,78,2.0,2.0,77,0.00,,,0.00,Wunderground v.1.15,2013-08-28 17:40:00,
2013-08-28 13:50:00,76.1,69.1,29.88,ENE,76,1.0,4.0,79,0.00,,,0.00,Wunderground v.1.15,2013-08-28 17:50:00,
2013-08-28 14:00:00,76.3,69.3,29.88,ENE,61,2.0,2.0,79,0.00,,,0.00,Wunderground v.1.15,2013-08-28 18:00:00,
2013-08-28 14:10:00,75.9,69.6,29.88,ENE,62,2.0,2.0,81,0.00,,,0.00,Wunderground v.1.15,2013-08-28 18:10:00,
2013-08-28 14:20:00,76.0,69.7,29.89,ENE,77,1.0,1.0,81,0.00,,,0.00,Wunderground v.1.15,2013-08-28 18:20:00,
2013-08-28 14:30:00,75.9,68.9,29.88,ENE,63,2.0,2.0,79,0.00,,,0.00,Wunderground v.1.15,2013-08-28 18:30:00,
2013-08-28 14:40:00,76.4,69.4,29.88,ESE,103,2.0,2.0,79,0.00,,,0.00,Wunderground v.1.15,2013-08-28 18:40:00,
2013-08-28 14:50:00,78.8,71.4,29.88,SE,129,1.0,1.0,78,0.00,,,0.00,Wunderground v.1.15,2013-08-28 18:50:00,
2013-08-28 15:00:00,79.1,70.1,29.88,SE,146,1.0,2.0,74,0.00,,,0.00,Wunderground v.1.15,2013-08-28 19:00:00,
2013-08-28 15:10:00,79.1,70.5,29.88,East,79,1.0,3.0,75,0.00,,,0.00,Wunderground v.1.15,2013-08-28 19:10:00,
2013-08-28 15:20:00,79.9,70.5,29.87,SE,138,2.0,3.0,73,0.00,,,0.00,Wunderground v.1.15,2013-08-28 19:20:00,
2013-08-28 15:30:00,80.4,70.5,29.87,ENE,77,2.0,2.0,72,0.00,,,0.00,Wunderground v.1.15,2013-08-28 19:30:00,
2013-08-28 15:40:00,80.6,70.7,29.87,SE,135,2.0,4.0,72,0.00,,,0.00,Wunderground v.1.15,2013-08-28 19:40:00,
2013-08-28 15:50:00,80.5,69.0,29.86,SE,138,2.0,2.0,68,0.00,,,0.00,Wunderground v.1.15,2013-08-28 19:50:00,
2013-08-28 16:00:00,79.6,69.0,29.87,South,182,2.0,2.0,70,0.00,,,0.00,Wunderground v.1.15,2013-08-28 20:00:00,
2013-08-28 16:10:00,79.0,69.2,29.87,SE,137,2.0,4.0,72,0.00,,,0.00,Wunderground v.1.15,2013-08-28 20:10:00,
2013-08-28 16:20:00,77.9,69.3,29.88,SE,142,1.0,2.0,75,0.00,,,0.00,Wunderground v.1.15,2013-08-28 20:20:00,
2013-08-28 16:30:00,77.2,69.0,29.87,SE,130,1.0,1.0,76,0.00,,,0.00,Wunderground v.1.15,2013-08-28 20:30:00,
2013-08-28 16:40:00,76.6,68.5,29.87,ESE,119,0.0,0.0,76,0.00,,,0.00,Wunderground v.1.15,2013-08-28 20:40:00,
2013-08-28 16:50:00,76.0,68.3,29.87,South,188,0.0,1.0,77,0.00,,,0.00,Wunderground v.1.15,2013-08-28 20:50:00,
2013-08-28 17:00:00,75.4,68.4,29.87,SSW,195,0.0,0.0,79,0.00,,,0.00,Wunderground v.1.15,2013-08-28 21:00:00,
2013-08-28 17:10:00,75.2,67.9,29.87,WNW,288,0.0,0.0,78,0.00,,,0.00,Wunderground v.1.15,2013-08-28 21:10:00,
2013-08-28 17:20:00,75.5,68.2,29.88,WNW,288,0.0,0.0,78,0.00,,,0.00,Wunderground v.1.15,2013-08-28 21:20:00,
2013-08-28 17:30:00,75.8,68.8,29.88,WNW,288,0.0,0.0,79,0.00,,,0.00,Wunderground v.1.15,2013-08-28 21:30:00,
2013-08-28 17:40:00,75.5,68.9,29.88,SE,145,0.0,0.0,80,0.00,,,0.00,Wunderground v.1.15,2013-08-28 21:40:00,
2013-08-28 17:50:00,75.9,69.3,29.88,SE,145,0.0,0.0,80,0.00,,,0.00,Wunderground v.1.15,2013-08-28 21:50:00,
2013-08-28 18:00:00,75.8,69.2,29.89,SE,146,0.0,0.0,80,0.00,,,0.00,Wunderground v.1.15,2013-08-28 22:00:00,
2013-08-28 18:10:00,75.9,69.6,29.89,SE,145,0.0,0.0,81,0.00,,,0.00,Wunderground v.1.15,2013-08-28 22:10:00,
2013-08-28 18:20:00,75.0,69.1,29.89,SE,146,0.0,0.0,82,0.00,,,0.00,Wunderground v.1.15,2013-08-28 22:20:00,
2013-08-28 18:30:00,74.4,69.2,29.90,SE,145,0.0,0.0,84,0.00,,,0.00,Wunderground v.1.15,2013-08-28 22:30:00,
2013-08-28 18:40:00,73.6,68.8,29.90,SE,145,0.0,0.0,85,0.00,,,0.00,Wunderground v.1.15,2013-08-28 22:40:00,
2013-08-28 18:50:00,73.3,68.5,29.90,NNW,331,0.0,0.0,85,0.00,,,0.00,Wunderground v.1.15,2013-08-28 22:50:00,
2013-08-28 19:00:00,73.2,68.4,29.90,NNW,331,0.0,0.0,85,0.00,,,0.00,Wunderground v.1.15,2013-08-28 23:00:00,
2013-08-28 19:10:00,73.1,68.0,29.90,NNW,331,0.0,0.0,84,0.00,,,0.00,Wunderground v.1.15,2013-08-28 23:10:00,
2013-08-28 19:20:00,72.8,68.0,29.90,NNW,331,0.0,0.0,85,0.00,,,0.00,Wunderground v.1.15,2013-08-28 23:20:00,
2013-08-28 19:30:00,72.3,67.9,29.90,NNW,331,0.0,0.0,86,0.00,,,0.00,Wunderground v.1.15,2013-08-28 23:30:00,
2013-08-28 19:40:00,72.0,67.6,29.91,NNW,331,0.0,0.0,86,0.00,,,0.00,Wunderground v.1.15,2013-08-28 23:40:00,
2013-08-28 19:50:00,71.5,67.4,29.91,NNW,331,0.0,0.0,87,0.00,,,0.00,Wunderground v.1.15,2013-08-28 23:50:00,
2013-08-28 20:00:00,70.8,67.1,29.91,NE,39,0.0,1.0,88,0.00,,,0.00,Wunderground v.1.15,2013-08-29 00:00:00,
2013-08-28 20:10:00,70.3,66.9,29.91,NE,39,0.0,0.0,89,0.00,,,0.00,Wunderground v.1.15,2013-08-29 00:10:00,
2013-08-28 20:20:00,70.2,67.1,29.92,NE,39,0.0,0.0,90,0.00,,,0.00,Wunderground v.1.15,2013-08-29 00:20:00,
2013-08-28 20:30:00,70.0,66.9,29.92,NE,39,0.0,0.0,90,0.00,,,0.00,Wunderground v.1.15,2013-08-29 00:30:00,
2013-08-28 20:40:00,70.1,67.0,29.92,NE,39,0.0,0.0,90,0.00,,,0.00,Wunderground v.1.15,2013-08-29 00:40:00,
2013-08-28 20:50:00,70.5,67.4,29.92,ENE,64,0.0,0.0,90,0.00,,,0.00,Wunderground v.1.15,2013-08-29 00:50:00,
2013-08-28 21:00:00,70.4,67.3,29.93,SSE,149,0.0,2.0,90,0.00,,,0.00,Wunderground v.1.15,2013-08-29 01:00:00,
2013-08-28 21:10:00,70.8,67.7,29.93,East,98,1.0,2.0,90,0.00,,,0.00,Wunderground v.1.15,2013-08-29 01:10:00,
2013-08-28 21:20:00,70.5,67.4,29.93,East,98,0.0,0.0,90,0.00,,,0.00,Wunderground v.1.15,2013-08-29 01:20:00,
2013-08-28 21:30:00,70.3,67.5,29.93,East,98,0.0,0.0,91,0.00,,,0.00,Wunderground v.1.15,2013-08-29 01:30:00,
2013-08-28 21:40:00,70.1,67.3,29.93,East,98,0.0,0.0,91,0.00,,,0.00,Wunderground v.1.15,2013-08-29 01:40:00,
2013-08-28 21:50:00,69.9,67.5,29.94,East,98,0.0,0.0,92,0.00,,,0.00,Wunderground v.1.15,2013-08-29 01:50:00,
2013-08-28 22:00:00,70.2,68.1,29.94,East,98,0.0,0.0,93,0.00,,,0.00,Wunderground v.1.15,2013-08-29 02:00:00,
2013-08-28 22:10:00,70.5,68.1,29.94,East,100,0.0,0.0,92,0.00,,,0.00,Wunderground v.1.15,2013-08-29 02:10:00,
2013-08-28 22:20:00,70.6,68.2,29.94,East,100,0.0,0.0,92,0.00,,,0.00,Wunderground v.1.15,2013-08-29 02:20:00,
2013-08-28 22:30:00,70.5,68.4,29.96,East,100,0.0,1.0,93,0.00,,,0.00,Wunderground v.1.15,2013-08-29 02:30:00,
2013-08-28 22:40:00,70.6,68.2,29.97,East,100,0.0,0.0,92,0.00,,,0.00,Wunderground v.1.15,2013-08-29 02:40:00,
2013-08-28 22:50:00,69.7,65.7,30.00,NNE,28,3.0,3.0,87,0.00,,,0.00,Wunderground v.1.15,2013-08-29 02:50:00,
2013-08-28 23:00:00,66.3,63.0,30.00,ENE,73,6.0,6.0,89,0.80,,,0.11,Wunderground v.1.15,2013-08-29 03:00:00,
2013-08-28 23:10:00,64.6,62.2,29.99,ENE,59,3.0,3.0,92,0.69,,,0.33,Wunderground v.1.15,2013-08-29 03:10:00,
2013-08-28 23:20:00,63.9,62.1,29.99,ENE,76,3.0,3.0,94,0.15,,,0.35,Wunderground v.1.15,2013-08-29 03:20:00,
2013-08-28 23:30:00,63.7,61.9,29.99,ENE,63,1.0,1.0,94,0.07,,,0.36,Wunderground v.1.15,2013-08-29 03:30:00,
2013-08-28 23:40:00,63.7,62.2,29.99,ENE,61,1.0,4.0,95,0.04,,,0.36,Wunderground v.1.15,2013-08-29 03:40:00,
2013-08-28 23:50:00,63.8,62.3,29.99,ENE,59,1.0,2.0,95,0.00,,,0.37,Wunderground v.1.15,2013-08-29 03:50:00,